Hourly Data Report for July 14, 2021

DRYDEN REGIONAL
ONTARIO
Current Station Operator: NAVCAN

49°49'39.000" N
92°44'39.000" W
412.70 m
6032125
71527
YHD

Download Data

Hourly Data (July 2021)
Hourly Data Report for July 14, 2021
TIME
LST
Temp Definition
°C
Dew Point Definition
°C
Rel Hum Definition
%
Precip. Amount Definition
mm

Wind Dir Definition
10's deg

Wind Spd Definition
km/h
Visibility Definition
km
Stn Press Definition
kPa
Hmdx Definition


Wind Chill Definition


Weather Definition


00:00 15.5 11.7 78 0.0 2 8 16.1 96.92     LegendNANA
01:00 14.8 11.8 82 0.0 1 8 16.1 96.93     LegendNANA
02:00 14.3 11.5 83 0.0 3 9 16.1 96.95     LegendNANA
03:00 13.5 11.6 88 0.0 LegendMM 4 16.1 96.97     LegendNANA
04:00 13.8 12.0 89 0.0 LegendMM 4 16.1 97.00     LegendNANA
05:00 13.1 12.0 93 0.0   0 16.1 97.02     LegendNANA
06:00 14.3 13.4 94 0.0 7 4 16.1 96.99     LegendNANA
07:00 16.7 12.7 77 0.0 9 5 16.1 97.07     LegendNANA
08:00 19.0 10.5 57 0.0 13 5 16.1 97.12     LegendNANA
09:00 19.7 10.0 53 0.0 14 5 16.1 97.09     LegendNANA
10:00 21.4 9.5 46 0.0 LegendMM 8 16.1 97.07     LegendNANA
11:00 21.5 9.4 46 0.0 6 5 16.1 97.03     LegendNANA
12:00 22.6 7.8 38 0.0 5 8 16.1 96.96     LegendNANA
13:00 22.3 8.7 41 0.0 8 5 16.1 96.92     LegendNANA
14:00 23.1 9.3 41 0.0 1 9 16.1 96.89     LegendNANA
15:00 24.0 8.3 36 0.0 LegendMM 8 16.1 96.84 25   LegendNANA
16:00 23.7 8.5 38 0.0 10 5 16.1 96.82     LegendNANA
17:00 22.9 8.1 38 0.0   0 16.1 96.81     LegendNANA
18:00 23.5 7.4 35 0.0 LegendMM 4 16.1 96.80     LegendNANA
19:00 22.0 9.8 45 0.0 3 4 12.9 96.80     LegendNANA
20:00 20.5 10.1 51 0.0 7 5 8.1 96.79     Haze
21:00 19.3 11.3 59 0.0 6 4 8.1 96.82     Haze
22:00 17.5 12.6 73 0.0 7 5 8.1 96.81     Haze
23:00 17.0 13.3 79 0.0 9 5 8.1 96.81     Haze

Notes on Data Quality.

Legend

  • E = Estimated
  • M = Missing
  • NA = Not Available*
  • [empty] = Indicates an unobserved value
Date modified: